When you browse on this site, cookies collect data to enhance your experience and personalize the content and advertising you see.
Visit our Privacy Policy to learn more. By continuing to use the site, you agree to this use of cookies and data.
  • In Latvia
  • List of Countries
  • For 7 days
  • Water Temperature
  • Satellite Maps
  • Weather Map
  • Weather Widgets
  • user-avatar
    Login

    Hourly Weather Allschwil

    Today, 18 July, Thursday

    Time Temperature Precipitation Wind Pressure Humidity
    00:00 +18°C° 0 mm 1 mps 733 mmHg 75%
    01:00 +18°C° 0 mm 1 mps 733 mmHg 75%
    02:00 +18°C° 0 mm 1 mps 732 mmHg 75%
    03:00 +18°C° 0 mm 1 mps 732 mmHg 74%
    04:00 +18°C° 0 mm 1 mps 732 mmHg 74%
    05:00 +18°C° 0 mm 1 mps 732 mmHg 73%
    06:00 +19°C° 0 mm 1 mps 732 mmHg 72%
    07:00 +20°C° 0 mm 1 mps 733 mmHg 68%
    08:00 +22°C° 0 mm 1 mps 733 mmHg 62%
    09:00 +24°C° 0 mm 1 mps 733 mmHg 55%
    10:00 +26°C° 0 mm 2 mps 734 mmHg 48%
    11:00 +27°C° 0 mm 2 mps 733 mmHg 47%
    12:00 +27°C° 0 mm 3 mps 733 mmHg 46%
    13:00 +28°C° 0 mm 3 mps 733 mmHg 45%
    14:00 +27°C° 0 mm 3 mps 733 mmHg 46%
    15:00 +27°C° 0 mm 3 mps 733 mmHg 47%
    16:00 +27°C° 0 mm 2 mps 733 mmHg 48%
    17:00 +26°C° 0 mm 2 mps 733 mmHg 54%
    18:00 +25°C° 0 mm 2 mps 733 mmHg 60%
    19:00 +24°C° 0 mm 1 mps 733 mmHg 67%
    20:00 +23°C° 0.1 mm 1 mps 734 mmHg 71%
    21:00 +21°C° 0.1 mm 1 mps 734 mmHg 76%
    22:00 +20°C° 0.1 mm 1 mps 735 mmHg 81%
    23:00 +20°C° 0 mm 1 mps 735 mmHg 82%

    Tomorrow, 19 July, Friday

    Time Temperature Precipitation Wind Pressure Humidity
    00:00 +19°C° 0 mm 1 mps 735 mmHg 83%
    01:00 +19°C° 0 mm 1 mps 735 mmHg 84%
    02:00 +19°C° 0 mm 1 mps 735 mmHg 85%
    03:00 +18°C° 0 mm 1 mps 735 mmHg 87%
    04:00 +18°C° 0 mm 1 mps 735 mmHg 88%
    05:00 +18°C° 0 mm 1 mps 735 mmHg 87%
    06:00 +19°C° 0 mm 1 mps 735 mmHg 85%
    07:00 +20°C° 0 mm 1 mps 735 mmHg 84%
    08:00 +22°C° 0 mm 1 mps 735 mmHg 76%
    09:00 +24°C° 0 mm 1 mps 735 mmHg 69%
    10:00 +25°C° 0 mm 1 mps 735 mmHg 62%
    11:00 +26°C° 0 mm 2 mps 735 mmHg 59%
    12:00 +27°C° 0 mm 2 mps 735 mmHg 56%
    13:00 +28°C° 0 mm 2 mps 735 mmHg 53%
    14:00 +28°C° 0 mm 3 mps 735 mmHg 53%
    15:00 +28°C° 0 mm 3 mps 735 mmHg 53%
    16:00 +28°C° 0 mm 3 mps 735 mmHg 53%
    17:00 +27°C° 0 mm 2 mps 735 mmHg 58%
    18:00 +26°C° 0 mm 2 mps 735 mmHg 63%
    19:00 +25°C° 0 mm 1 mps 735 mmHg 68%
    20:00 +24°C° 0 mm 1 mps 735 mmHg 72%
    21:00 +22°C° 0 mm 1 mps 735 mmHg 76%
    22:00 +18°C° 0 mm 0 mps 735 mmHg 80%
    23:00 +18°C° 0 mm 0 mps 735 mmHg 81%

    Day after tomorrow, 20 July, Saturday

    Time Temperature Precipitation Wind Pressure Humidity
    00:00 +17°C° 0 mm 0 mps 735 mmHg 82%
    01:00 +17°C° 0 mm 0 mps 735 mmHg 83%
    02:00 +19°C° 0 mm 1 mps 735 mmHg 84%
    03:00 +18°C° 0 mm 1 mps 734 mmHg 85%
    04:00 +18°C° 0 mm 1 mps 734 mmHg 86%
    05:00 +19°C° 0 mm 1 mps 734 mmHg 83%
    06:00 +20°C° 0 mm 1 mps 734 mmHg 81%
    07:00 +21°C° 0 mm 1 mps 734 mmHg 78%
    08:00 +23°C° 0 mm 1 mps 735 mmHg 71%
    09:00 +26°C° 0 mm 1 mps 735 mmHg 64%
    10:00 +28°C° 0 mm 1 mps 735 mmHg 56%
    11:00 +29°C° 0 mm 2 mps 735 mmHg 52%
    12:00 +30°C° 0 mm 3 mps 735 mmHg 47%
    13:00 +33°C° 0 mm 4 mps 735 mmHg 43%
    14:00 +33°C° 0 mm 4 mps 735 mmHg 43%
    15:00 +33°C° 0 mm 4 mps 735 mmHg 43%
    16:00 +33°C° 0 mm 4 mps 735 mmHg 43%
    17:00 +31°C° 0 mm 3 mps 735 mmHg 50%
    18:00 +29°C° 0 mm 2 mps 735 mmHg 57%
    19:00 +28°C° 0 mm 1 mps 735 mmHg 64%
    20:00 +26°C° 0 mm 1 mps 736 mmHg 65%
    21:00 +25°C° 0 mm 1 mps 736 mmHg 66%
    22:00 +24°C° 0 mm 2 mps 736 mmHg 68%
    23:00 +23°C° 0.7 mm 2 mps 737 mmHg 74%

    21 July, Sunday

    Time Temperature Precipitation Wind Pressure Humidity
    00:00 +22°C° 0.7 mm 1 mps 737 mmHg 81%
    01:00 +21°C° 0.7 mm 1 mps 737 mmHg 88%
    02:00 +20°C° 0.3 mm 1 mps 737 mmHg 89%
    03:00 +20°C° 0.3 mm 1 mps 737 mmHg 90%
    04:00 +20°C° 0.3 mm 1 mps 737 mmHg 91%
    05:00 +21°C° 0.1 mm 1 mps 738 mmHg 90%
    06:00 +21°C° 0.1 mm 1 mps 738 mmHg 89%
    07:00 +22°C° 0.1 mm 1 mps 738 mmHg 88%
    08:00 +24°C° 0 mm 1 mps 739 mmHg 80%
    09:00 +26°C° 0 mm 1 mps 739 mmHg 72%
    10:00 +28°C° 0 mm 2 mps 740 mmHg 64%
    11:00 +29°C° 0 mm 2 mps 739 mmHg 61%
    12:00 +29°C° 0 mm 3 mps 739 mmHg 57%
    13:00 +30°C° 0 mm 3 mps 739 mmHg 54%
    14:00 +31°C° 0 mm 3 mps 739 mmHg 53%
    15:00 +31°C° 0 mm 3 mps 739 mmHg 52%
    16:00 +31°C° 0 mm 3 mps 739 mmHg 52%
    17:00 +30°C° 0 mm 2 mps 739 mmHg 57%
    18:00 +29°C° 0 mm 2 mps 739 mmHg 62%
    19:00 +28°C° 0 mm 1 mps 739 mmHg 67%
    20:00 +26°C° 0 mm 1 mps 740 mmHg 72%
    21:00 +24°C° 0 mm 1 mps 740 mmHg 76%
    22:00 +23°C° 0 mm 1 mps 740 mmHg 80%
    23:00 +22°C° 0 mm 1 mps 740 mmHg 82%

    22 July, Monday

    Time Temperature Precipitation Wind Pressure Humidity
    00:00 +22°C° 0 mm 1 mps 740 mmHg 84%
    01:00 +19°C° 0 mm 0 mps 740 mmHg 86%
    02:00 +19°C° 0 mm 0 mps 740 mmHg 87%
    03:00 +18°C° 0 mm 0 mps 740 mmHg 87%
    04:00 +18°C° 0 mm 0 mps 740 mmHg 88%
    05:00 +19°C° 0 mm 0 mps 740 mmHg 86%
    06:00 +20°C° 0 mm 0 mps 740 mmHg 84%
    07:00 +23°C° 0 mm 1 mps 740 mmHg 82%
    08:00 +25°C° 0 mm 1 mps 740 mmHg 75%
    09:00 +27°C° 0 mm 1 mps 740 mmHg 69%
    10:00 +29°C° 0 mm 1 mps 740 mmHg 62%
    11:00 +30°C° 0 mm 1 mps 740 mmHg 58%
    12:00 +32°C° 0 mm 1 mps 740 mmHg 55%
    13:00 +34°C° 0 mm 2 mps 740 mmHg 52%
    14:00 +34°C° 0 mm 2 mps 740 mmHg 52%
    15:00 +34°C° 0 mm 2 mps 739 mmHg 51%
    16:00 +34°C° 0 mm 2 mps 739 mmHg 51%
    17:00 +32°C° 0 mm 2 mps 739 mmHg 57%
    18:00 +31°C° 0 mm 2 mps 739 mmHg 64%
    19:00 +29°C° 0 mm 1 mps 739 mmHg 71%
    20:00 +28°C° 0 mm 1 mps 739 mmHg 75%
    21:00 +26°C° 0 mm 1 mps 739 mmHg 80%
    22:00 +24°C° 0 mm 1 mps 739 mmHg 84%
    23:00 +24°C° 0 mm 1 mps 739 mmHg 85%

    23 July, Tuesday

    Time Temperature Precipitation Wind Pressure Humidity
    00:00 +23°C° 0 mm 1 mps 739 mmHg 86%
    01:00 +23°C° 0 mm 1 mps 739 mmHg 87%
    02:00 +23°C° 0 mm 1 mps 739 mmHg 88%
    03:00 +22°C° 0 mm 1 mps 738 mmHg 89%
    04:00 +22°C° 0 mm 1 mps 738 mmHg 90%
    05:00 +23°C° 0 mm 1 mps 738 mmHg 88%
    06:00 +23°C° 0 mm 1 mps 738 mmHg 86%
    07:00 +24°C° 0 mm 1 mps 738 mmHg 84%
    08:00 +26°C° 0 mm 1 mps 738 mmHg 76%
    09:00 +29°C° 0 mm 1 mps 738 mmHg 68%
    10:00 +31°C° 0 mm 1 mps 738 mmHg 60%
    11:00 +32°C° 0 mm 1 mps 738 mmHg 54%
    12:00 +34°C° 0 mm 2 mps 738 mmHg 49%
    13:00 +36°C° 0 mm 2 mps 737 mmHg 43%
    14:00 +36°C° 0 mm 2 mps 737 mmHg 43%
    15:00 +36°C° 0 mm 2 mps 737 mmHg 43%
    16:00 +36°C° 0 mm 2 mps 736 mmHg 43%
    17:00 +35°C° 0 mm 2 mps 736 mmHg 51%
    18:00 +32°C° 0 mm 1 mps 736 mmHg 58%
    19:00 +31°C° 0 mm 1 mps 736 mmHg 66%
    20:00 +29°C° 0 mm 1 mps 736 mmHg 70%
    21:00 +27°C° 0 mm 1 mps 736 mmHg 74%
    22:00 +26°C° 0 mm 1 mps 736 mmHg 78%
    23:00 +25°C° 0 mm 1 mps 736 mmHg 79%
    Show more